#timestamp,LO_Frequency,Hit,StdDev 
1510196415.7,286046999.3,N
1510196435.5,286046996.6,N
1510196455.4,286046997.0,N
1510196475.2,286046995.9,N
1510196495.0,286046994.9,N
1510196495.9,286046994.9,N
1510196515.8,286046999.4,N
1510196535.6,286047002.8,N
1510196555.4,286047002.8,N
1510196575.3,286047001.6,N
1510196595.1,286047001.5,N
1510196596.0,286047001.5,N
1510196615.8,286047003.5,N
1510196635.6,286047004.2,N
1510196655.5,286047004.9,N
1510196675.3,286047002.4,N
1510196695.1,286047002.7,N
1510196715.9,286046998.6,N
1510196735.7,286046999.5,N
1510196755.5,286046997.5,N
1510196775.4,286046996.1,N
1510196795.2,286046995.0,N
1510196815.0,286046995.7,N
1510196815.9,286046995.7,N
1510196835.8,286046992.3,N
1510196855.6,286046992.3,N
1510196875.4,286046991.9,N
1510196895.3,286046993.9,N
1510196915.1,286046994.4,N
1510196916.0,286046994.4,N
1510196935.8,286046993.9,N
1510196955.7,286046994.9,N
1510196975.5,286046996.4,N
1510196995.3,286046996.7,N
1510197015.2,286046999.1,N
1510197035.9,286046999.0,N
1510197055.7,286046995.5,N
1510197075.5,286046998.0,N
1510197095.4,286046998.9,N
1510197115.2,286047002.6,N
1510197135.0,286047002.0,N
1510197135.9,286047002.0,N
1510197155.8,286047000.2,N
1510197175.6,286047003.6,N
1510197195.4,286047005.5,N
1510197215.3,286047005.6,N
1510197235.1,286047006.3,N
1510197236.0,286047006.3,N
1510197255.8,286047006.1,N
1510197275.7,286047011.6,N
1510197295.5,286047008.0,N
1510197315.3,286047010.1,N
1510197335.2,286047010.6,N
1510197355.9,286047004.8,N
1510197375.7,286047009.2,N
1510197395.5,286047006.7,N
1510197415.4,286047004.5,N
1510197435.2,286047008.3,N
1510197455.0,286047007.2,N
1510197455.9,286047007.2,N
1510197475.8,286047007.5,N
1510197495.6,286047007.0,N
1510197515.4,286047009.0,N
1510197535.3,286047007.3,N
1510197555.1,286047005.3,N
1510197575.8,286047006.6,N
1510197595.7,286047007.6,N
1510197615.5,286047008.7,N
1510197635.3,286047010.1,Y
1510197655.2,286047003.8,P
1510197675.9,286047002.9,N
1510197695.7,286047001.7,N
1510197715.6,286047003.3,N
1510197735.4,286047003.0,N
1510197755.2,286047000.4,N
1510197775.0,286047002.0,N
1510197776.0,286047002.0,N
1510197795.8,286047002.7,N
1510197815.6,286046999.1,N
1510197835.4,286047000.2,N
1510197855.3,286047003.6,N
1510197875.1,286047003.4,N
1510197895.8,286047000.1,N
1510197915.7,286046998.2,N
1510197935.5,286047000.2,N
1510197955.3,286047003.6,N
1510197975.2,286047003.8,N
1510197995.9,286047007.1,Y
1510198015.7,286047002.0,P
1510198035.6,286047000.1,N
1510198055.4,286047000.0,N
1510198075.2,286046998.3,N
1510198095.1,286047001.1,N
1510198096.0,286047001.1,N
1510198115.8,286046998.4,N
1510198135.6,286046999.5,N
1510198155.5,286046996.9,N
1510198175.3,286046999.6,N
1510198195.1,286046997.2,N
1510198215.9,286046999.4,N
1510198235.7,286046998.1,N
1510198255.5,286046996.9,N
1510198275.3,286047000.8,N
1510198295.2,286047000.0,N
1510198315.0,286047000.9,N
1510198315.9,286047000.9,N
1510198335.7,286046998.8,N
1510198355.6,286047000.8,N
1510198375.4,286047000.3,N
1510198395.2,286047000.8,N
1510198415.1,286047002.0,N
1510198416.0,286047002.0,N
1510198435.8,286046998.1,N
1510198455.6,286047001.6,N
1510198475.5,286047003.0,N
1510198495.3,286047001.3,N
1510198515.1,286047002.0,N
1510198535.9,286047005.4,Y
1510198555.7,286047001.5,P
1510198575.5,286046997.0,P
1510198595.4,286047002.7,N
1510198615.2,286047003.6,N
1510198635.0,286047001.6,N
1510198635.9,286047001.6,N
1510198655.7,286047004.3,N
1510198675.6,286047003.1,N
1510198695.4,286047001.9,N
1510198715.2,286047000.8,N
1510198735.5,286046999.7,N
1510198755.4,286046997.0,N
1510198775.2,286047001.8,N
1510198795.0,286047000.9,N
1510198795.9,286047000.9,N
1510198815.8,286046999.2,N
1510198835.6,286046998.9,N
1510198855.4,286046999.1,N
1510198875.3,286047001.0,N
1510198895.1,286046998.8,N
1510198915.8,286046997.3,N
1510198935.7,286046998.3,N
1510198955.5,286046995.0,N
1510198975.3,286046994.9,N
1510198995.2,286046995.1,N
1510199015.9,286046997.5,N
1510199035.7,286046996.5,N
1510199055.6,286046998.6,N
1510199075.4,286046997.7,N
1510199095.2,286046997.8,N
1510199115.0,286046995.1,N
1510199115.9,286046995.1,N
1510199135.8,286046995.1,N
1510199155.6,286046998.3,N
1510199175.4,286046995.0,N
1510199195.3,286046995.1,N
1510199215.1,286047000.2,N
1510199235.8,286046998.3,N
1510199255.7,286046998.1,N
1510199275.5,286047000.4,N
1510199295.3,286047000.0,N
1510199315.2,286046998.2,N
1510199335.9,286046998.9,N
1510199355.7,286046999.8,N
1510199375.6,286047001.0,N
1510199395.4,286047000.2,N
1510199415.2,286047003.2,N
1510199435.0,286047002.0,N
1510199436.0,286047002.0,N
1510199455.8,286047002.7,N
1510199475.6,286047002.4,N
1510199495.4,286046996.8,N
1510199515.3,286046998.7,N
1510199535.1,286047000.8,N
1510199555.8,286046998.9,N
1510199575.7,286046999.6,N
1510199595.5,286046998.3,N
1510199615.3,286046999.3,N
1510199635.2,286047000.2,N
1510199655.9,286047004.4,N
1510199675.7,286047000.2,N
1510199695.6,286047002.3,N
1510199715.4,286047004.2,N
1510199735.2,286047000.3,N
1510199755.1,286046995.7,N
1510199756.0,286046995.7,N
1510199775.8,286046994.1,N
1510199795.6,286046989.1,Y
1510199815.5,286046988.6,P
1510199835.3,286046987.6,N
1510199855.1,286046989.4,N
1510199875.8,286046985.5,N
1510199895.7,286046987.8,N
1510199915.5,286046986.2,N
1510199935.4,286046984.3,Y
1510199955.2,286046993.9,P
1510199975.0,286046994.7,N
1510199975.9,286046994.7,N
1510199995.7,286046994.7,N
